AF5AA Weather Reports


Display with metric or nautical units.
time (UTC)temp
F
wind
direction
speed
MPH
gust
MPH
rain 1hr
in
rain 24hr
in
rain mn
in
humidity
%
barometer
mb
20260505010027 73 110 0.0 0.0 0.00 0.01 0.01 71 1007.6
20260505005523 74 110 0.0 0.0 0.00 0.01 0.01 69 1007.6
20260505005021 74 113 0.0 0.0 0.00 0.01 0.01 70 1007.7
20260505004517 74 112 0.0 0.0 0.00 0.01 0.01 70 1007.6
20260505004014 74 117 0.0 0.0 0.00 0.01 0.01 69 1007.4
20260505003511 75 108 0.0 0.0 0.00 0.01 0.01 68 1007.6
20260505003009 75 110 0.0 0.0 0.00 0.01 0.01 67 1007.6
20260505002504 75 104 0.0 0.0 0.00 0.01 0.01 65 1007.5
20260505002003 76 115 0.0 0.0 0.00 0.01 0.01 63 1007.7
20260505001500 76 108 0.0 0.0 0.00 0.01 0.01 64 1007.7
20260505000956 77 102 0.0 0.0 0.00 0.01 0.01 61 1007.8
20260505000454 77 116 0.0 1.0 0.00 0.01 0.01 60 1008.0
20260504235951 77 117 1.0 1.0 0.00 0.01 0.01 58 1008.0
20260504235448 77 109 0.0 0.0 0.00 0.01 0.01 60 1007.8
20260504234945 77 111 0.0 0.0 0.00 0.01 0.01 60 1008.0
20260504234442 78 165 0.0 1.0 0.00 0.01 0.01 57 1008.3
20260504233938 77 132 0.0 1.0 0.00 0.01 0.01 56 1008.1
20260504233434 78 98 0.0 0.0 0.00 0.01 0.01 58 1008.2
20260504232931 78 106 0.0 0.0 0.00 0.01 0.01 60 1008.2
20260504232428 78 111 0.0 0.0 0.00 0.01 0.01 59 1008.2
20260504231925 78 112 0.0 0.0 0.00 0.01 0.01 56 1008.3
20260504231422 78 140 1.0 1.0 0.00 0.01 0.01 56 1008.4
20260504230918 78 125 0.0 0.0 0.00 0.01 0.01 57 1008.4
20260504230415 78 115 0.0 0.0 0.00 0.01 0.01 56 1008.2
20260504225914 78 119 0.0 0.0 0.00 0.01 0.01 55 1008.4
20260504225410 78 105 1.0 2.0 0.00 0.01 0.01 55 1008.4
20260504224908 78 104 0.0 0.0 0.00 0.01 0.01 56 1008.6
20260504224404 78 110 0.0 0.0 0.00 0.01 0.01 56 1008.6
20260504223901 78 124 0.0 0.0 0.00 0.01 0.01 56 1008.4
20260504223356 79 119 0.0 0.0 0.00 0.01 0.01 54 1008.8
20260504222853 79 131 0.0 1.0 0.00 0.01 0.01 53 1008.6
20260504222350 79 152 0.0 0.0 0.00 0.01 0.01 53 1009.0
20260504221849 80 129 0.0 1.0 0.00 0.01 0.01 52 1008.8
20260504221345 80 103 1.0 1.0 0.00 0.01 0.01 52 1009.1
20260504220842 80 133 2.0 2.0 0.00 0.01 0.01 51 1009.0
20260504220339 80 128 0.0 1.0 0.00 0.01 0.01 50 1009.0
20260504215836 80 102 0.0 0.0 0.00 0.01 0.01 53 1008.9
20260504215332 80 136 0.0 1.0 0.00 0.01 0.01 50 1009.1
20260504214828 80 120 0.0 0.0 0.00 0.01 0.01 50 1009.3
20260504214326 80 127 1.0 1.0 0.00 0.01 0.01 49 1009.2
20260504213822 80 140 1.0 1.0 0.00 0.01 0.01 50 1009.4
20260504213318 80 129 1.0 1.0 0.00 0.01 0.01 49 1009.5
20260504212815 80 49 1.0 1.0 0.00 0.01 0.01 48 1009.6
20260504212311 80 127 1.0 1.0 0.00 0.01 0.01 48 1009.8
20260504211809 80 189 1.0 1.0 0.00 0.01 0.01 50 1009.9
20260504211305 80 121 1.0 1.0 0.00 0.01 0.01 50 1010.0
20260504210803 79 122 0.0 0.0 0.00 0.01 0.01 50 1010.1
20260504210300 79 79 1.0 1.0 0.00 0.01 0.01 49 1010.3
20260504205757 79 124 2.0 3.0 0.00 0.01 0.01 49 1010.2
20260504205255 79 98 0.0 0.0 0.00 0.01 0.01 52 1010.3
20260504204752 79 112 0.0 0.0 0.00 0.01 0.01 48 1010.5
20260504204251 80 136 0.0 1.0 0.00 0.01 0.01 49 1010.8
20260504203750 80 123 0.0 1.0 0.00 0.01 0.01 49 1010.5
20260504203246 81 143 1.0 2.0 0.00 0.01 0.01 47 1010.7
20260504202741 81 129 1.0 1.0 0.00 0.01 0.01 47 1010.9
20260504202239 80 115 0.0 0.0 0.00 0.01 0.01 46 1010.7
20260504201736 80 120 1.0 1.0 0.00 0.01 0.01 47 1010.9
20260504201233 80 124 1.0 1.0 0.00 0.01 0.01 47 1010.9
20260504200731 80 105 0.0 1.0 0.00 0.01 0.01 48 1011.1
20260504200226 80 154 1.0 1.0 0.00 0.01 0.01 49 1010.9
20260504195723 80 117 0.0 0.0 0.00 0.01 0.01 47 1011.4
20260504195219 80 160 2.0 2.0 0.00 0.01 0.01 47 1011.4
20260504194716 80 125 0.0 1.0 0.00 0.01 0.01 48 1011.4
20260504194212 79 119 0.0 0.0 0.00 0.01 0.01 47 1011.5
20260504193709 79 100 0.0 1.0 0.00 0.01 0.01 48 1011.8
20260504193206 79 83 4.0 5.0 0.00 0.01 0.01 47 1011.8
20260504192704 79 55 0.0 1.0 0.00 0.01 0.01 47 1011.7
20260504192202 78 104 1.0 2.0 0.00 0.01 0.01 48 1011.7
20260504191701 78 131 1.0 2.0 0.00 0.01 0.01 48 1011.9
20260504191156 79 49 1.0 2.0 0.00 0.01 0.01 47 1012.1
20260504190652 78 68 0.0 1.0 0.00 0.01 0.01 47 1012.0
20260504190149 78 100 0.0 1.0 0.00 0.01 0.01 48 1012.1
20260504185645 78 88 0.0 1.0 0.00 0.01 0.01 51 1012.2
20260504185142 78 94 1.0 1.0 0.00 0.01 0.01 48 1012.0
20260504184638 78 109 0.0 0.0 0.00 0.01 0.01 48 1012.2
20260504184133 78 122 1.0 1.0 0.00 0.01 0.01 50 1012.3
20260504183631 78 108 0.0 0.0 0.00 0.01 0.01 50 1012.5
20260504183128 78 59 0.0 0.0 0.00 0.01 0.01 47 1012.5
20260504182626 77 106 0.0 0.0 0.00 0.01 0.01 48 1012.9
20260504182123 77 131 1.0 2.0 0.00 0.01 0.01 49 1013.1
20260504181620 77 178 1.0 1.0 0.00 0.01 0.01 49 1013.0
20260504181118 77 122 1.0 2.0 0.00 0.01 0.01 50 1013.0
20260504180617 77 118 0.0 0.0 0.00 0.01 0.01 50 1013.0
20260504180115 77 114 0.0 0.0 0.00 0.01 0.01 50 1013.0
20260504175612 76 200 0.0 1.0 0.00 0.01 0.01 52 1012.9
20260504175109 76 127 0.0 1.0 0.00 0.01 0.01 51 1013.3
20260504174607 76 197 1.0 2.0 0.00 0.01 0.01 51 1013.5
20260504174103 75 116 0.0 1.0 0.00 0.01 0.01 49 1013.6
20260504173600 76 155 1.0 1.0 0.00 0.01 0.01 49 1013.7
20260504173058 76 175 1.0 2.0 0.00 0.01 0.01 48 1013.6
20260504172554 76 174 1.0 2.0 0.00 0.01 0.01 50 1013.8
20260504172050 76 98 1.0 2.0 0.00 0.01 0.01 50 1013.7
20260504171547 75 120 0.0 0.0 0.00 0.01 0.01 50 1013.6
20260504171044 75 77 2.0 3.0 0.00 0.01 0.01 52 1013.8
20260504170540 75 145 1.0 2.0 0.00 0.01 0.01 52 1013.8
20260504150924 69 103 1.0 2.0 0.00 0.01 0.01 62 1014.9
20260504150421 69 116 1.0 1.0 0.00 0.01 0.01 62 1014.9
20260504140847 62 112 0.0 0.0 0.00 0.01 0.01 85 1015.0
20260504140343 62 113 0.0 0.0 0.00 0.01 0.01 89 1015.2
20260504130812 57 103 0.0 0.0 0.00 0.01 0.01 93 1015.2
20260504130308 57 103 0.0 0.0 0.00 0.01 0.01 94 1015.2
20260504120232 53 105 0.0 0.0 0.00 0.01 0.01 96 1014.7
20260504110659 53 118 0.0 0.0 0.00 0.01 0.01 94 1014.5
20260504110155 54 94 0.0 0.0 0.00 0.01 0.01 93 1014.4
20260504100119 56 106 0.0 0.0 0.00 0.01 0.01 89 1014.8
20260504081512 55 106 0.0 0.0 0.00 0.01 0.01 94 1015.0
20260504081008 55 101 0.0 0.0 0.00 0.01 0.01 94 1015.0
20260504080504 55 101 0.0 0.0 0.00 0.01 0.01 94 1015.0
20260504050317 58 105 0.0 0.0 0.00 0.00 0.00 87 1016.6
20260504045814 58 105 0.0 0.0 0.00 0.01 0.01 87 1016.6
20260504045309 59 105 0.0 0.0 0.00 0.01 0.01 87 1016.4
20260504044806 59 105 0.0 0.0 0.00 0.01 0.01 88 1016.6
20260504044304 59 105 0.0 0.0 0.00 0.01 0.01 88 1016.5
20260504043801 59 105 0.0 0.0 0.00 0.01 0.01 88 1016.6
20260504043258 59 104 0.0 0.0 0.00 0.01 0.01 88 1016.6
20260504042755 59 107 0.0 0.0 0.00 0.01 0.01 88 1016.3
20260504042251 59 104 0.0 0.0 0.00 0.01 0.01 88 1016.6
20260504041748 59 106 0.0 0.0 0.00 0.01 0.01 87 1016.5
20260504041244 60 105 0.0 0.0 0.00 0.01 0.01 87 1016.5
20260504040740 60 106 0.0 0.0 0.00 0.01 0.01 87 1016.6
20260504040238 60 105 0.0 0.0 0.00 0.01 0.01 87 1016.5
20260504035734 60 105 0.0 0.0 0.00 0.01 0.01 86 1016.5
20260504035231 60 105 0.0 0.0 0.00 0.01 0.01 86 1016.6
20260504034729 60 104 0.0 0.0 0.00 0.01 0.01 85 1016.7
20260504034226 61 104 0.0 0.0 0.00 0.01 0.01 84 1016.6
20260504033723 61 103 0.0 0.0 0.00 0.01 0.01 82 1016.6
20260504033221 61 118 0.0 0.0 0.00 0.01 0.01 83 1016.6
20260504032717 61 106 0.0 0.0 0.00 0.01 0.01 83 1016.7
20260504032215 61 106 0.0 0.0 0.00 0.01 0.01 82 1016.8
20260504031711 61 106 0.0 0.0 0.00 0.01 0.01 82 1016.6
20260504031208 62 106 0.0 0.0 0.00 0.01 0.01 82 1016.7
20260504030704 62 106 0.0 0.0 0.00 0.01 0.01 81 1016.8
20260504030202 62 106 0.0 0.0 0.00 0.01 0.01 81 1016.8
20260504025658 62 106 0.0 0.0 0.00 0.01 0.01 82 1016.5
20260504025155 62 106 0.0 0.0 0.00 0.01 0.01 82 1017.0
20260504024652 63 106 0.0 0.0 0.00 0.01 0.01 82 1016.6
20260504024148 63 113 0.0 0.0 0.00 0.01 0.01 81 1016.6
20260504023645 63 113 0.0 0.0 0.00 0.01 0.01 80 1016.6
20260504023141 63 113 0.0 0.0 0.00 0.01 0.01 79 1016.6
20260504022638 64 113 0.0 0.0 0.00 0.01 0.01 79 1016.6
20260504022133 64 113 0.0 0.0 0.00 0.01 0.01 81 1016.3
20260504021632 64 113 0.0 0.0 0.00 0.01 0.01 77 1016.6
20260504021128 64 114 0.0 0.0 0.00 0.01 0.01 76 1016.6
20260504020625 64 114 0.0 0.0 0.00 0.01 0.01 78 1016.6
20260504020121 65 114 0.0 0.0 0.00 0.01 0.01 80 1016.6
20260504015618 65 114 0.0 0.0 0.00 0.01 0.01 77 1016.4
20260504015114 65 114 0.0 0.0 0.00 0.01 0.01 77 1016.3
20260504014610 65 106 0.0 0.0 0.00 0.01 0.01 78 1016.4
20260504014108 65 110 0.0 0.0 0.00 0.01 0.01 77 1016.3
20260504013605 66 109 0.0 0.0 0.00 0.01 0.01 78 1016.3
20260504013101 67 109 0.0 0.0 0.00 0.01 0.01 77 1016.3
20260504012559 67 109 0.0 0.0 0.00 0.01 0.01 75 1016.3
20260504012057 67 109 0.0 0.0 0.00 0.01 0.01 71 1016.3
20260504011553 68 109 0.0 0.0 0.00 0.01 0.01 74 1016.3
20260504011050 68 109 0.0 0.0 0.00 0.01 0.01 72 1016.2
20260504010545 69 109 0.0 0.0 0.00 0.01 0.01 74 1016.1